Find NORSAT-2

NORAD ID: 42828 Int'l Des: 2017-042 Owner: STATS Country: N operational
LEOCIRCULARRETROGRADESSO

Current View

Loading 3D Globe...

About NORSAT-2

Description loading...

Upcoming Passes

Passes for default location (London). Set your location on the main map for personalized predictions.

Altitude History

Loading altitude history...

Two-Line Element Set

1 42828U 17042D 26146.26162661 .00010994 00000-0 49179-3 0 9993
2 42828 97.4029 320.0603 0010988 125.4274 234.7989 15.21414405484401
Epoch: May 26, 2026 • Age: 10 hours

Current Status

Altitude 507.2 km
Velocity 7.62 km/s
Sub-Earth Point 47.83°N, 171.4°W
Launch Date Jul 14, 2017
Age 8.8 years
Type other

Technical Details

Classification Payload
Mass 30.00 kg
Dry Mass 30.00 kg
Total Mass 30.00 kg
Length 0.40 m
Diameter 0.20 m
Span 0.92 m
Shape Box +2 pan+4 ant
Manufacturer UTIAS
Bus Type GNB
Phase Status In Orbit
Owner/State STATS/N

Most Searched